Location: Possagno
(45.8500°N, 11.8667°E)
Time: 09:54:58
(UTC+00:00)

STARLINK-2651 - Pass Details

Date: 30 July 2021
Orbit: 546 x 548 km, 53.1° (Epoch: 22 September)

Event Time Altitude Azimuth Distance (km) Brightness Sun altitude
Rises 19:13:26 0° 300° (WNW) 2,722 10.1 -5.2°
Reaches altitude 10° 19:15:41 10° 298° (WNW) 1,825 8.2 -5.6°
Maximum altitude 19:19:48 70° 216° (SW) 586 3.8 -6.2°
Drops below altitude 10° 19:23:54 10° 132° (SE) 1,814 5.6 -6.7°
Enters shadow 19:24:13 - 132° (SE) 1,939 5.7 -6.8°
